Minden, LA

4:35 AM CDT on April 29, 2017 (GMT -0500)
Minden

Weather History for KMNE - October, 2011

Change the Weather History Date:

Sunday, October 23, 2011

  Actual Average (KBAD) Record (KBAD)
Temperature  
Mean Temperature 66 °F -  
Max Temperature 73 °F 73 °F 89 °F (2003)
Min Temperature 59 °F 53 °F 37 °F (1998)
Cooling Degree Days 1    
Growing Degree Days 16 (Base 50)    
Moisture  
Dew Point 61 °F    
Average Humidity 86    
Maximum Humidity 100    
Minimum Humidity 68    
Precipitation  
Precipitation 0.19 in - - ()
Sea Level Pressure  
Sea Level Pressure 30.07 in    
Wind  
Wind Speed 4 mph ()    
Max Wind Speed 12 mph    
Max Gust Speed 21 mph    
Visibility 9.4 miles    
Events Rain , Thunderstorm    
Averages and records for this station are not official NWS values.
T = Trace of Precipitation, MM = Missing Value Source: Averaged Metar Reports

Daily Weather History Graph

Daily Weather History Graph

Search for Another Location

Airport or City:

Trip Planner

Search our weather history database for the weather conditions in past years. The results will help you decide how hot, cold, wet, or windy it might be!

Date:

Astronomy

Oct. 23, 2011 Rise Set
Actual Time 7:23 AM CDT 6:31 PM CDT
Civil Twilight 6:58 AM CDT 6:56 PM CDT
Nautical Twilight 6:29 AM CDT 7:25 PM CDT
Astronomical Twilight 6:00 AM CDT 7:53 PM CDT
Moon 3:42 AM CDT (10/23) 4:13 PM CDT (10/23)
Length of Visible Light 11h 58m
Length of Day
11h 08m
Waning Crescent, 14% of the Moon is Illuminated
Oct 23
Waning Crescent
Oct 26
New
Nov 2
First Quarter
Nov 10
Full
Nov 18
Last Quarter

Hourly Weather History & Observations

Time (CDT) Temp. Dew Point Humidity Pressure Visibility Wind Dir Wind Speed Gust Speed Precip Events Conditions
12:15 AM 66.2 °F 55.4 °F 68% 30.05 in 10.0 mi ESE 5.8 mph - N/A   Clear
12:35 AM 66.2 °F 55.4 °F 68% 30.04 in 10.0 mi SSE 5.8 mph - N/A   Clear
12:55 AM 66.2 °F 55.4 °F 68% 30.04 in 10.0 mi SE 5.8 mph - N/A   Clear
1:15 AM 66.2 °F 57.2 °F 73% 30.03 in 10.0 mi SE 4.6 mph - N/A   Clear
1:55 AM 66.2 °F 57.2 °F 73% 30.04 in 10.0 mi SSE 5.8 mph - N/A   Scattered Clouds
2:15 AM 66.2 °F 59.0 °F 78% 30.04 in 10.0 mi SSE 5.8 mph - N/A   Mostly Cloudy
2:35 AM 66.2 °F 59.0 °F 78% 30.04 in 10.0 mi SSE 4.6 mph - N/A   Overcast
2:55 AM 66.2 °F 59.0 °F 78% 30.04 in 10.0 mi SSE 5.8 mph - N/A   Overcast
3:15 AM 66.2 °F 59.0 °F 78% 30.06 in 10.0 mi SSW 5.8 mph - N/A   Overcast
3:35 AM 66.2 °F 60.8 °F 83% 30.08 in 10.0 mi West 11.5 mph 20.7 mph N/A   Light Drizzle
3:55 AM 64.4 °F 60.8 °F 88% 30.07 in 10.0 mi West 5.8 mph - 0.01 in Rain , Thunderstorm Light Thunderstorms and Rain
4:15 AM 62.6 °F 60.8 °F 94% 30.06 in 10.0 mi WSW 6.9 mph - 0.01 in Rain Rain
4:35 AM 62.6 °F 60.8 °F 94% 30.06 in 10.0 mi SSW 8.1 mph - 0.04 in Rain Light Rain
4:55 AM 60.8 °F 60.8 °F 100% 30.05 in 10.0 mi SSW 8.1 mph - 0.08 in Rain Rain
5:15 AM 60.8 °F 60.8 °F 100% 30.03 in 7.0 mi South 9.2 mph - 0.07 in Rain Heavy Rain
5:35 AM 60.8 °F 60.8 °F 100% 30.02 in 10.0 mi South 5.8 mph - 0.09 in Rain Light Rain
5:55 AM 60.8 °F 60.8 °F 100% 30.02 in 10.0 mi SW 6.9 mph - 0.09 in   Overcast
6:15 AM 60.8 °F 60.8 °F 100% 30.01 in 10.0 mi SSW 6.9 mph - N/A   Scattered Clouds
6:35 AM 60.8 °F 60.8 °F 100% 30.02 in 10.0 mi SW 5.8 mph - N/A   Clear
6:55 AM 60.8 °F 60.8 °F 100% 30.02 in 10.0 mi WSW 3.5 mph - N/A   Clear
7:15 AM 60.8 °F 60.8 °F 100% 30.03 in 10.0 mi Calm Calm - N/A   Clear
7:35 AM 59.0 °F 59.0 °F 100% 30.04 in 10.0 mi NNW 3.5 mph - 0.01 in   Scattered Clouds
7:55 AM 59.0 °F 59.0 °F 100% 30.04 in 10.0 mi Calm Calm - 0.01 in   Scattered Clouds
8:15 AM 60.8 °F 60.8 °F 100% 30.05 in 10.0 mi Calm Calm - N/A   Overcast
8:35 AM 60.8 °F 60.8 °F 100% 30.06 in 10.0 mi Calm Calm - N/A   Mostly Cloudy
8:55 AM 60.8 °F 60.8 °F 100% 30.06 in 10.0 mi Calm Calm - N/A   Scattered Clouds
9:15 AM 62.6 °F 60.8 °F 94% 30.07 in 10.0 mi Calm Calm - N/A   Scattered Clouds
9:35 AM 64.4 °F 60.8 °F 88% 30.08 in 10.0 mi WNW 3.5 mph - N/A   Mostly Cloudy
9:55 AM 64.4 °F 60.8 °F 88% 30.08 in 10.0 mi Calm Calm - N/A   Scattered Clouds
10:15 AM 66.2 °F 62.6 °F 88% 30.08 in 10.0 mi WNW 3.5 mph - N/A   Scattered Clouds
10:35 AM 68.0 °F 62.6 °F 83% 30.08 in 10.0 mi Calm Calm - N/A   Scattered Clouds
10:55 AM 69.8 °F 62.6 °F 78% 30.09 in 10.0 mi WSW 6.9 mph - N/A   Scattered Clouds
11:35 AM 71.6 °F 62.6 °F 73% 30.09 in 10.0 mi WSW 6.9 mph - N/A   Mostly Cloudy
11:55 AM 73.4 °F 62.6 °F 69% 30.09 in 10.0 mi West 5.8 mph - N/A   Overcast
12:15 PM 71.6 °F 62.6 °F 73% 30.08 in 10.0 mi West 10.4 mph - N/A   Overcast
12:35 PM 69.8 °F 62.6 °F 78% 30.08 in 10.0 mi WSW 5.8 mph - N/A   Overcast
12:55 PM 69.8 °F 62.6 °F 78% 30.08 in 10.0 mi West 4.6 mph - N/A   Overcast
1:15 PM 69.8 °F 62.6 °F 78% 30.07 in 10.0 mi West 3.5 mph - N/A   Overcast
1:35 PM 73.4 °F 62.6 °F 69% 30.06 in 10.0 mi WSW 3.5 mph - N/A   Overcast
1:55 PM 73.4 °F 64.4 °F 73% 30.05 in 10.0 mi NW 4.6 mph - N/A   Overcast
2:15 PM 71.6 °F 64.4 °F 78% 30.05 in 10.0 mi West 4.6 mph - N/A   Overcast
2:55 PM 71.6 °F 64.4 °F 78% 30.04 in 10.0 mi Calm Calm - N/A   Overcast
3:15 PM 73.4 °F 64.4 °F 73% 30.04 in 10.0 mi WSW 3.5 mph - N/A   Overcast
3:35 PM 73.4 °F 64.4 °F 73% 30.04 in 10.0 mi Calm Calm - N/A   Overcast
3:55 PM 73.4 °F 64.4 °F 73% 30.04 in 10.0 mi NW 5.8 mph - N/A   Overcast
4:15 PM 73.4 °F 64.4 °F 73% 30.04 in 10.0 mi WNW 5.8 mph - N/A   Overcast
4:35 PM 73.4 °F 64.4 °F 73% 30.04 in 10.0 mi NNW 6.9 mph - N/A   Overcast
4:55 PM 73.4 °F 64.4 °F 73% 30.04 in 10.0 mi Calm Calm - N/A   Mostly Cloudy
5:15 PM 73.4 °F 64.4 °F 73% 30.04 in 10.0 mi NNW 3.5 mph - N/A   Mostly Cloudy
5:35 PM 73.4 °F 64.4 °F 73% 30.05 in 10.0 mi North 3.5 mph - N/A   Mostly Cloudy
5:55 PM 73.4 °F 64.4 °F 73% 30.05 in 10.0 mi North 4.6 mph - N/A   Scattered Clouds
6:15 PM 71.6 °F 64.4 °F 78% 30.06 in 10.0 mi Calm Calm - N/A   Clear
6:35 PM 69.8 °F 64.4 °F 83% 30.06 in 10.0 mi Calm Calm - N/A   Clear
6:55 PM 68.0 °F 64.4 °F 88% 30.06 in 10.0 mi Calm Calm - N/A   Clear
7:15 PM 66.2 °F 64.4 °F 94% 30.07 in 10.0 mi Calm Calm - N/A   Clear
7:35 PM 64.4 °F 62.6 °F 94% 30.08 in 10.0 mi Calm Calm - N/A   Clear
7:55 PM 64.4 °F 62.6 °F 94% 30.09 in 10.0 mi Calm Calm - N/A   Clear
8:15 PM 64.4 °F 62.6 °F 94% 30.10 in 10.0 mi Calm Calm - N/A   Clear
8:35 PM 62.6 °F 62.6 °F 100% 30.11 in 10.0 mi Calm Calm - N/A   Clear
8:55 PM 62.6 °F 62.6 °F 100% 30.12 in 7.0 mi Calm Calm - N/A   Clear
9:15 PM 62.6 °F 62.6 °F 100% 30.12 in 5.0 mi Calm Calm - N/A   Clear
9:35 PM 62.6 °F 60.8 °F 94% 30.13 in 5.0 mi Calm Calm - N/A   Clear
9:55 PM 60.8 °F 60.8 °F 100% 30.14 in 5.0 mi Calm Calm - N/A   Clear
10:15 PM 60.8 °F 60.8 °F 100% 30.14 in 7.0 mi Calm Calm - N/A   Clear
10:35 PM 59.0 °F 59.0 °F 100% 30.14 in 7.0 mi Calm Calm - N/A   Clear
10:55 PM 59.0 °F 59.0 °F 100% 30.15 in 7.0 mi Calm Calm - N/A   Clear
11:15 PM 59.0 °F 59.0 °F 100% 30.15 in 4.0 mi Calm Calm - N/A   Clear
11:35 PM 59.0 °F 59.0 °F 100% 30.15 in 2.0 mi Calm Calm - N/A   Clear